SL-16 DEB, 25402

Orbit data source: Space-Track

SL-16 DEB, 25402 is space debris in SSO originally from a launch on Fri, 10 Jul 1998 UTC launched from the Tyuratam Missile And Space Complex (TTMTR). Debris objects in space refer to the collection of defunct objects orbiting the Earth. Examples of debris include non-operational satellites, rocket bodies, and fragments generated from explosions, collisions, or faulty payload assembly.

Loading next visibility...
Identifier
25402, 1998-043J
Orbit
SSO
Country
Flag of CISCIS
Related business
Manufacturer
Yuzhnoe
Mission
Spacecraft
Bus & Motor
SEP MOTOR COVER, Unknown motor
Mass
~0 kg wet, ~1 kg dry
Launch date (UTC)
1998-07-10 (28 years ago)
Launch vehicle
Unknown
Launch site
Tyuratam Missile And Space Complex (TTMTR)
Object type
Payload
Rocket body
Debris
Shape & HBR
Cone, 0.5 m
Radar Cross Section
0.635 m², Small (<0.1 m²)

Expand to show TLE details & history
Last TLE update: 14 hours ago

TLE from 14 hours ago
0 SL-16 DEB
1 25402U 98043J   26093.70416703  .00000227  00000-0  17761-3 0  9991
2 25402  99.2372 153.4699 0152897 202.6283 280.1407 13.96928137412254
Epoch: 2026-04-03T16:54Z
TLE epoch observation values (Epoch: 2026-04-03T16:54:00.031Z)
Latitude
57.84609°
Longitude
-97.15145°
Altitude
896.181 km
Speed
7.419 km/s
True Right ascension
23h 13m 31s
True Declination
57° 41' 38"
Sunlit
Object was in daylight at epoch
Visualization orbit readout
Latitude
Unknown
Longitude
Unknown
Altitude
Unknown
Speed
Unknown
Apparent Right ascension
Unknown
Apparent Declination
Unknown
Sunlit
N/A
Visualization observer readout
Local Sidereal Time
12:58:13
Azimuth
Unknown
Elevation
Unknown
Doppler factor
Unknown
Orbital elements
Apogee altitude
1,012.972 km
Perigee altitude
790.36 km
Semi-major axis
7,279.803 km
Eccentricity
0.01529
Inclination
99.2372°
RAAN
153.4699°
Arg. of periapsis
202.6283°
True anomaly
278.41044°
Mean anomaly
280.1407°
Eccentric anomaly
279.27612°
Mean motion
3.49433 °/min
Orbital period
103.02 mins
BSTAR
0.00017761
Loading maneuver chart data...
Computing Atmospheric mass density...
Loading historical data...
Loading historical data...
Loading historical data...
Loading historical data...
Loading historical data...
Loading historical data...
Loading historical data...

Documentation

Showing up to 5 results
|